Lexington Weather

Lexington, Massachusetts, USA

47°F
10/22/2019 2:31am 
  • Lexington Conditions: Mostly cloudy
  • Temperature: 46.6°F / 8.1°CWarmer 1.3°F than last hour.
  • Dew Point: 45.0°FIncreased 1.8°Fsince last hour.
  • Relative Humidity: 94%Increased 2.0% since last hour.
  • Wind: Calm, 10-min avg: Calm, gust: None
  • Barometer: 30.12 in Steady
  • Visibility: 9 miles
  • Rain Today: 0.00 in
  •   

Regional Weather Roundup
for Boston, MA

        
000
ASUS41 KBOX 220010
RWRBOX

REGIONAL WEATHER ROUNDUP
NATIONAL WEATHER SERVICE BOSTON/NORTON MA
800 PM EDT MON OCT 21 2019

NOTE:  "FAIR" INDICATES FEW OR NO CLOUDS BELOW 12,000 FEET WITH NO 
SIGNIFICANT WEATHER AND/OR OBSTRUCTIONS TO VISIBILITY.

MAZALL-220100-
EASTERN MASSACHUSETTS
  
CITY           SKY/WX    TMP DP  RH WIND       PRES   REMARKS
BOSTON         FAIR      55  48  77 NE9       30.15S                  
6HR MIN TEMP:  55; 6HR MAX TEMP:  61;                                

BEVERLY        FAIR      48  45  89 NE5       30.15R                  
LAWRENCE       FAIR      50  45  83 NE3       30.17R                  
BEDFORD        FAIR      51  43  74 CALM      30.14S                  
BLUE HILL      NOT AVBL                                               
NORWOOD        FAIR      46  40  79 CALM      30.15R                  
MARSHFIELD     FAIR      55  50  82 NE8       30.15R                  
PLYMOUTH       FAIR      51  47  86 NE5       30.15R                  
TAUNTON        FAIR      45  41  86 CALM      30.15R                  
NEW BEDFORD    FAIR      50  45  83 CALM      30.14R                  
$$

MAZALL-220100-
CAPE COD AND THE ISLANDS
  
CITY           SKY/WX    TMP DP  RH WIND       PRES   REMARKS
FALMOUTH       CLEAR     52  50  93 NE9       30.13S                  
HYANNIS        FAIR      54  49  83 NE7       30.12R                  
CHATHAM        NOT AVBL                                               
PROVINCETOWN   FAIR      54  50  86 NE10        N/A                   
NANTUCKET      FAIR      54  51  90 N15       30.11R                  
MARTHAS VNYRD  FAIR      52  49  89 NE8       30.12R                  
$$
 
MAZALL-220100-
CENTRAL AND WESTERN MASSACHUSETTS
  
CITY           SKY/WX    TMP DP  RH WIND       PRES   REMARKS
WORCESTER      FAIR      52  46  80 CALM      30.14S                  
6HR MIN TEMP:  52; 6HR MAX TEMP:  61;                                

FITCHBURG      FAIR      48  43  82 CALM      30.16R                  
ORANGE         FAIR      49  45  86 CALM      30.15R                  
SPRINGFIELD    PTCLDY    49  46  90 CALM      30.12R                  
WESTFIELD      FAIR      49  45  86 NW5       30.13R                  
NORTH ADAMS    FAIR      44  41  89 CALM      30.13R                  
PITTSFIELD     FAIR      49  44  83 CALM      30.12R                  
$$
 
RIZALL-220100-
RHODE ISLAND
  
CITY           SKY/WX    TMP DP  RH WIND       PRES   REMARKS
PROVIDENCE     FAIR      51  43  74 NE7       30.15R                  
6HR MIN TEMP:  50; 6HR MAX TEMP:  65;                                

NEWPORT        FAIR      53  45  74 NE5       30.13R                  
BLOCK ISLAND   FAIR      56  47  71 NE12      30.12R                  
SMITHFIELD     FAIR     N/A N/A N/A NE6       30.14S                  
WESTERLY       FAIR      56  46  69 NE6       30.12S                  
$$
 
CTZALL-220100-
CONNECTICUT
  
CITY           SKY/WX    TMP DP  RH WIND       PRES   REMARKS
BRADLEY INTL   FAIR      52  47  83 CALM      30.12R                  
6HR MIN TEMP:  52; 6HR MAX TEMP:  69;                                

HARTFORD       FAIR      53  48  83 CALM      30.12R                  
BRIDGEPORT     FAIR      55  49  80 CALM      30.10S                  
DANBURY        FAIR      49  45  86 CALM      30.12R                  
GROTON         FAIR      56  41  57 N5        30.11S                  
NEW HAVEN      FAIR      52  48  86 CALM      30.12R                  
CHESTER        FAIR      54  46  76 CALM      30.12R                  
MERIDEN        FAIR      51  48  89 CALM      30.12R                  
WILLIMANTIC    FAIR      53  47  79 CALM      30.14R                  
OXFORD         FAIR      53  46  77 CALM      30.13R                  
$$

MEZ002-015-021-024-NHZ003-005-008-011-012-014-VTZ005-008-220100-
NORTHERN NEW ENGLAND
  
CITY           SKY/WX    TMP DP  RH WIND       PRES   REMARKS
PORTLAND ME    FAIR      50  46  86 CALM      30.17S                  
6HR MIN TEMP:  49; 6HR MAX TEMP:  62;                                

BANGOR ME      FAIR      46  42  86 CALM      30.18R                  
CONCORD NH     FAIR      52  46  80 E5        30.16R                  
MANCHESTER NH  FAIR      54  46  74 NE3       30.15R                  
NASHUA NH      FAIR      49  48  97 CALM      30.16S                  
PORTSMOUTH NH  CLEAR     48  46  94 NW3       30.16R                  
JAFFREY NH     FAIR      46  43  89 CALM      30.15S                  
KEENE NH       FAIR      46  45  96 S3        30.15R                  
BURLINGTON VT  FAIR      48  42  80 CALM      30.13F                  
MT. WASHINGTON PTCLDY    45 -17   7 NE3         N/A                   
$$

NYZ052-076-220100-
EASTERN NEW YORK
  
CITY           SKY/WX    TMP DP  RH WIND       PRES   REMARKS
ALBANY         FAIR      49  45  86 CALM      30.13R                  
6HR MIN TEMP:  48; 6HR MAX TEMP:  60;                                

NEW YORK CITY  FAIR      61  51  70 S3        30.09S                  
6HR MIN TEMP:  61; 6HR MAX TEMP:  68;                                

$$
 
ANZALL-220100-
MARINE OBSERVATIONS
  
STATION/POSITION TIME  TEMP    WIND        PRES    VSBY  WAVE
                       AIR SEA DIR/SP/G                  HT/PER
                 (UTC) (F)     (DEG/KT/KT) (MB)    (MI)  (FT/S)
BOSTON BUOY      2350   55 57   50/ 10/ 12 1020.2R         3/ 5
BUZZARDS BAY     2300   56      30/ 20/ 21 1019.8F
NANTUCKET SOUND  2340      57                N/A           2/ 3
MASS BAY-STELLWA NOT AVBL
ISLE OF SHOALS   2300   54      90/  5/  5 1020.9R
S OF BLOCK IS    2330      60                N/A           7/10
$$

......................KEY.........................
  SKY/WX - SKY CONDITION/PRESENT WEATHER
  TMP    - TEMPERATURE IN FAHRENHEIT
  DWPT   - DEWPOINT IN FAHRENHEIT
  RH     - RELATIVE HUMIDITY IN PERCENT
  WIND   - DIRECTION AND SPEED IN MPH
  PRES   - MEAN SEA LEVEL PRESSURE IN INCHES OF HG
  WCI    - WIND CHILL INDEX
  VSB    - VISIBILITY IN MILES
  HX     - HEAT INDEX
  TC     - TEMPERATURE IN CELSIUS
  VRB    - VARIABLE WIND DIRECTION
  N/A    - NOT AVAILABLE
  
      

Other recent Regional Weather Roundups

Tue Oct 22, 2:10am

Tue Oct 22, 2:00am

Tue Oct 22, 1:10am

Tue Oct 22, 1:00am

Tue Oct 22, 12:10am

Tue Oct 22, 12:00am

Mon Oct 21, 11:10pm

Mon Oct 21, 11:00pm

Mon Oct 21, 10:10pm

Mon Oct 21, 10:01pm

Mon Oct 21, 9:10pm

Mon Oct 21, 9:00pm

Mon Oct 21, 8:00pm

Mon Oct 21, 7:10pm

Mon Oct 21, 7:01pm

Mon Oct 21, 6:10pm

Mon Oct 21, 6:01pm

Mon Oct 21, 5:10pm

Mon Oct 21, 5:01pm

Mon Oct 21, 4:10pm

Mon Oct 21, 4:00pm

Mon Oct 21, 3:10pm

Mon Oct 21, 3:01pm

Mon Oct 21, 2:10pm

Mon Oct 21, 2:00pm

Mon Oct 21, 1:10pm

Mon Oct 21, 1:01pm

Mon Oct 21, 12:10pm

Mon Oct 21, 12:00pm

Mon Oct 21, 11:10am

Mon Oct 21, 11:00am

Mon Oct 21, 10:10am

Mon Oct 21, 10:00am

Mon Oct 21, 9:10am

Mon Oct 21, 9:00am

Mon Oct 21, 7:10am

Mon Oct 21, 7:00am

Mon Oct 21, 6:10am

Mon Oct 21, 6:00am

Mon Oct 21, 5:10am

Mon Oct 21, 5:00am

Mon Oct 21, 4:10am

Mon Oct 21, 4:00am

Mon Oct 21, 3:10am

Mon Oct 21, 3:00am

Mon Oct 21, 2:10am

Mon Oct 21, 2:01am

Mon Oct 21, 1:10am

Mon Oct 21, 1:00am

Mon Oct 21, 12:10am

Mon Oct 21, 12:00am

Sun Oct 20, 11:10pm

Sun Oct 20, 11:00pm

Sun Oct 20, 10:10pm

Sun Oct 20, 10:00pm

Sun Oct 20, 9:10pm

Sun Oct 20, 9:01pm

Sun Oct 20, 8:10pm

Sun Oct 20, 8:00pm

Sun Oct 20, 7:10pm

Sun Oct 20, 7:01pm

Sun Oct 20, 6:10pm

Sun Oct 20, 6:00pm

Sun Oct 20, 5:10pm

Sun Oct 20, 5:00pm

Sun Oct 20, 4:10pm

Sun Oct 20, 4:00pm

Sun Oct 20, 3:10pm

Sun Oct 20, 3:00pm

Sun Oct 20, 2:10pm

Sun Oct 20, 2:01pm

Sun Oct 20, 1:10pm

Sun Oct 20, 1:01pm

Sun Oct 20, 12:10pm

Sun Oct 20, 12:00pm

Sun Oct 20, 11:10am

Sun Oct 20, 11:00am

Sun Oct 20, 10:10am

Sun Oct 20, 10:00am

Sun Oct 20, 9:10am

Sun Oct 20, 9:00am

Sun Oct 20, 8:10am

Sun Oct 20, 8:00am

Sun Oct 20, 7:10am

Sun Oct 20, 7:00am

Sun Oct 20, 6:10am

Sun Oct 20, 6:00am

Sun Oct 20, 5:10am

Sun Oct 20, 5:00am

Sun Oct 20, 4:10am

Sun Oct 20, 4:00am

Sun Oct 20, 3:10am

Sun Oct 20, 3:00am

Sun Oct 20, 2:10am

Sun Oct 20, 2:00am

Sun Oct 20, 1:10am

Sun Oct 20, 1:00am

Sun Oct 20, 12:10am

Sun Oct 20, 12:00am

Sat Oct 19, 11:10pm

Sat Oct 19, 11:00pm

Sat Oct 19, 10:10pm

Sat Oct 19, 10:00pm

Sat Oct 19, 9:10pm

Sat Oct 19, 9:00pm

Sat Oct 19, 8:10pm

Sat Oct 19, 8:00pm

Sat Oct 19, 7:10pm

Sat Oct 19, 7:00pm

Sat Oct 19, 6:10pm

Sat Oct 19, 6:00pm

Sat Oct 19, 5:10pm

Sat Oct 19, 5:00pm

Sat Oct 19, 4:10pm

Sat Oct 19, 4:00pm

Sat Oct 19, 3:10pm

Sat Oct 19, 3:01pm

Sat Oct 19, 2:10pm

Sat Oct 19, 2:00pm

Sat Oct 19, 1:10pm

Sat Oct 19, 1:01pm

Sat Oct 19, 12:10pm

Sat Oct 19, 12:00pm

Sat Oct 19, 11:10am

Sat Oct 19, 11:01am

Sat Oct 19, 10:10am

Sat Oct 19, 10:00am

Sat Oct 19, 9:10am

Sat Oct 19, 9:00am

Sat Oct 19, 8:10am

Sat Oct 19, 8:00am

Sat Oct 19, 7:10am

Sat Oct 19, 7:00am

Sat Oct 19, 6:10am

Sat Oct 19, 6:00am

Sat Oct 19, 5:10am

Sat Oct 19, 5:00am

Sat Oct 19, 4:10am

Sat Oct 19, 4:00am

Sat Oct 19, 3:10am

Sat Oct 19, 3:00am

Meta data:

ID: d2c34691-3fcf-4d59-bc6f-25888a929dfd
Link: https://api.weather.gov/products/d2c34691-3fcf-4d59-bc6f-25888a929dfd